Date String (YYYY-MM-DD hh:mm:ss) UTC,Instrument flags,absolute air pressure of the measurement (hPa),sample flow rate (lpm),inlet stack bypass flow (lpm),air temperature of the measurement (°C),ambient temperature measured by the external sensor (°C),aerosol sample conditioner tube jacket temperature (°C),OPC LED temperature (°C),internal box temperature (°C),relative humidity of the measurement (%),span deviation,mass concentration of particles derived from Lorenz-Mie calculation of OPC scattering (μg/m³),mass concentration of particles derived from Lorenz-Mie calculation of OPC scattering (μg/m³),mass concentration of particles derived from Lorenz-Mie calculation of OPC scattering (μg/m³)
DateTimeUTC,F1_M11,P_M11,Q1_M11,Q2_M11,T1_M11,T2_M11,T3_M11,T4_M11,T5_M11,U1_M11,ZSPAN_M11,X2_M11,X0_M11,X1_M11
2023-12-28 20:00:00,SystemResetWarning,0833.3,5.01,000.00,022.2,021.6,000.0,030.3,023.7,8.2,0000.0,0000.79,0002.75,0000.54
2023-12-28 20:01:00,SystemResetWarning,0833.4,5.00,000.00,022.2,021.6,000.0,030.3,023.7,8.1,0000.0,0000.77,0002.68,0000.55
2023-12-28 20:02:00,SystemResetWarning,0833.3,5.00,000.00,022.2,021.7,000.0,030.3,023.7,8.0,0000.0,0000.77,0002.56,0000.56
2023-12-28 20:03:00,SystemResetWarning,0833.4,4.99,000.00,022.2,021.7,000.0,030.3,023.7,8.0,0000.0,0000.78,0002.40,0000.55
2023-12-28 20:04:00,SystemResetWarning,0833.4,5.00,000.00,022.2,021.7,000.0,030.3,023.8,8.1,0000.0,0000.78,0002.38,0000.56
2023-12-28 20:05:00,SystemResetWarning,0833.4,5.00,000.00,022.3,021.7,000.0,030.4,023.8,8.0,0000.0,0000.81,0003.38,0000.56
2023-12-28 20:06:00,SystemResetWarning,0833.3,5.01,000.00,022.3,021.7,000.0,030.4,023.8,8.1,0000.0,0000.86,0004.50,0000.57
2023-12-28 20:07:00,SystemResetWarning,0833.4,5.01,000.00,022.3,021.7,000.0,030.4,023.8,8.1,0000.0,0000.90,0004.54,0000.57
2023-12-28 20:08:00,SystemResetWarning,0833.3,5.00,000.00,022.3,021.8,000.0,030.4,023.8,8.0,0000.0,0000.89,0004.53,0000.58
2023-12-28 20:09:00,SystemResetWarning,0833.3,5.00,000.00,022.3,021.8,000.0,030.4,023.8,8.0,0000.0,0000.90,0003.96,0000.58
2023-12-28 20:10:00,SystemResetWarning,0833.4,4.99,000.00,022.3,021.8,000.0,030.5,023.9,8.1,0000.0,0000.91,0004.68,0000.58
2023-12-28 20:11:00,SystemResetWarning,0833.4,5.00,000.00,022.4,021.8,000.0,030.5,023.9,7.9,0000.0,0000.89,0006.42,0000.57
2023-12-28 20:12:00,SystemResetWarning,0833.4,5.01,000.00,022.4,021.8,000.0,030.5,023.8,7.8,0000.0,0000.89,0007.51,0000.57
2023-12-28 20:13:00,SystemResetWarning,0833.4,5.00,000.00,022.4,021.9,000.0,030.5,023.9,7.8,0000.0,0000.89,0007.52,0000.57
2023-12-28 20:14:00,SystemResetWarning,0833.4,5.00,000.00,022.4,021.9,000.0,030.5,023.9,7.9,0000.0,0000.87,0007.37,0000.57
2023-12-28 20:15:00,SystemResetWarning,0833.4,5.00,000.00,022.4,021.9,000.0,030.5,023.9,8.0,0000.0,0000.86,0007.36,0000.57
2023-12-28 20:16:00,SystemResetWarning,0833.3,5.00,000.00,022.4,021.9,000.0,030.6,023.9,8.0,0000.0,0000.82,0006.63,0000.57
2023-12-28 20:17:00,SystemResetWarning,0833.3,5.00,000.00,022.5,021.9,000.0,030.6,023.9,7.9,0000.0,0000.83,0005.34,0000.57
2023-12-28 20:18:00,SystemResetWarning,0833.3,5.00,000.00,022.5,021.9,000.0,030.6,024.0,7.9,0000.0,0000.80,0005.21,0000.58
2023-12-28 20:19:00,SystemResetWarning,0833.3,5.00,000.00,022.5,021.9,000.0,030.6,024.0,7.9,0000.0,0000.81,0005.28,0000.58
2023-12-28 20:20:00,SystemResetWarning,0833.2,5.00,000.00,022.5,022.0,000.0,030.6,024.0,8.0,0000.0,0000.82,0005.29,0000.59
2023-12-28 20:21:00,SystemResetWarning,0833.3,4.99,000.00,022.5,022.0,000.0,030.6,024.0,8.0,0000.0,0000.83,0004.58,0000.60
2023-12-28 20:22:00,SystemResetWarning,0833.3,5.00,000.00,022.5,022.0,000.0,030.7,024.0,7.8,0000.0,0000.87,0002.80,0000.61
2023-12-28 20:23:00,SystemResetWarning,0833.3,5.00,000.00,022.6,022.0,000.0,030.7,024.0,7.7,0000.0,0000.90,0001.75,0000.62
2023-12-28 20:24:00,SystemResetWarning,0833.2,5.00,000.00,022.6,022.0,000.0,030.7,024.0,7.7,0000.0,0000.89,0001.67,0000.62
2023-12-28 20:25:00,SystemResetWarning,0833.3,5.01,000.00,022.6,022.0,000.0,030.7,024.0,7.7,0000.0,0000.90,0001.70,0000.62
2023-12-28 20:26:00,SystemResetWarning,0833.2,5.00,000.00,022.6,022.0,000.0,030.7,024.0,7.7,0000.0,0000.93,0001.74,0000.62
2023-12-28 20:27:00,SystemResetWarning,0833.2,5.00,000.00,022.6,022.1,000.0,030.7,024.1,7.8,0000.0,0000.95,0001.77,0000.63
2023-12-28 20:28:00,SystemResetWarning,0833.2,5.00,000.00,022.6,022.1,000.0,030.7,024.1,7.7,0000.0,0000.92,0001.88,0000.64
2023-12-28 20:29:00,SystemResetWarning,0833.2,4.99,000.00,022.6,022.1,000.0,030.8,024.1,7.8,0000.0,0000.95,0002.77,0000.65
2023-12-28 20:30:00,SystemResetWarning,0833.2,4.98,000.00,022.7,022.1,000.0,030.8,024.1,7.8,0000.0,0001.01,0003.86,0000.66
2023-12-28 20:31:00,SystemResetWarning,0833.2,5.01,000.00,022.7,022.1,000.0,030.8,024.1,7.7,0000.0,0001.02,0003.91,0000.67
2023-12-28 20:32:00,SystemResetWarning,0833.2,5.01,000.00,022.7,022.1,000.0,030.8,024.1,7.7,0000.0,0001.03,0003.95,0000.67
2023-12-28 20:33:00,SystemResetWarning,0833.2,5.00,000.00,022.7,022.2,000.0,030.8,024.2,7.7,0000.0,0001.06,0004.11,0000.67
2023-12-28 20:34:00,SystemResetWarning,0833.2,4.99,000.00,022.7,022.2,000.0,030.8,024.2,7.8,0000.0,0001.04,0004.76,0000.68
2023-12-28 20:35:00,SystemResetWarning,0833.3,5.01,000.00,022.7,022.2,000.0,030.9,024.2,7.7,0000.0,0001.07,0005.09,0000.69
2023-12-28 20:36:00,SystemResetWarning,0833.2,5.01,000.00,022.7,022.2,000.0,030.9,024.2,7.8,0000.0,0001.09,0005.24,0000.70
2023-12-28 20:37:00,SystemResetWarning,0833.2,5.01,000.00,022.8,022.2,000.0,030.9,024.2,7.7,0000.0,0001.10,0005.41,0000.71
2023-12-28 20:38:00,SystemResetWarning,0833.2,4.99,000.00,022.8,022.2,000.0,030.9,024.2,7.7,0000.0,0001.14,0005.61,0000.71
2023-12-28 20:39:00,SystemResetWarning,0833.2,4.99,000.00,022.8,022.3,000.0,030.9,024.3,7.8,0000.0,0001.14,0005.60,0000.71
2023-12-28 20:40:00,SystemResetWarning,0833.2,5.00,000.00,022.8,022.3,000.0,030.9,024.3,7.7,0000.0,0001.15,0005.32,0000.72
2023-12-28 20:41:00,SystemResetWarning,0833.2,5.01,000.00,022.8,022.3,000.0,031.0,024.3,7.7,0000.0,0001.13,0005.42,0000.73
2023-12-28 20:42:00,SystemResetWarning,0833.2,5.00,000.00,022.8,022.3,000.0,031.0,024.3,7.6,0000.0,0001.16,0006.00,0000.74
2023-12-28 20:43:00,SystemResetWarning,0833.2,4.99,000.00,022.9,022.3,000.0,031.0,024.3,7.6,0000.0,0001.19,0006.46,0000.75
2023-12-28 20:44:00,SystemResetWarning,0833.2,5.00,000.00,022.9,022.3,000.0,031.0,024.3,7.6,0000.0,0001.19,0006.58,0000.78
2023-12-28 20:45:00,SystemResetWarning,0833.2,4.99,000.00,022.9,022.3,000.0,031.0,024.4,7.8,0000.0,0001.19,0005.81,0000.79
2023-12-28 20:46:00,SystemResetWarning,0833.2,5.00,000.00,022.9,022.4,000.0,031.0,024.4,7.7,0000.0,0001.19,0005.54,0000.82
2023-12-28 20:47:00,SystemResetWarning,0833.2,5.01,000.00,022.9,022.4,000.0,031.1,024.4,7.7,0000.0,0001.21,0005.45,0000.85
2023-12-28 20:48:00,SystemResetWarning,0833.2,5.01,000.00,022.9,022.4,000.0,031.1,024.4,7.8,0000.0,0001.20,0005.26,0000.87
2023-12-28 20:49:00,SystemResetWarning,0833.2,4.99,000.00,023.0,022.4,000.0,031.1,024.5,7.7,0000.0,0001.23,0005.46,0000.91
2023-12-28 20:50:00,SystemResetWarning,0833.2,5.00,000.00,023.0,022.4,000.0,031.1,024.5,7.6,0000.0,0001.27,0006.21,0000.95
2023-12-28 20:51:00,SystemResetWarning,0833.2,5.01,000.00,023.0,022.5,000.0,031.1,024.5,7.6,0000.0,0001.29,0005.61,0000.98
2023-12-28 20:52:00,SystemResetWarning,0833.2,5.00,000.00,023.0,022.5,000.0,031.1,024.5,7.7,0000.0,0001.30,0004.53,0001.00
2023-12-28 20:53:00,SystemResetWarning,0833.2,5.00,000.00,023.0,022.5,000.0,031.2,024.5,7.8,0000.0,0001.33,0004.01,0001.02
2023-12-28 20:54:00,SystemResetWarning,0833.3,4.99,000.00,023.1,022.5,000.0,031.2,024.5,7.7,0000.0,0001.38,0006.50,0001.05
2023-12-28 20:55:00,SystemResetWarning,0833.3,5.00,000.00,023.1,022.5,000.0,031.2,024.5,7.5,0000.0,0001.39,0006.83,0001.07
2023-12-28 20:56:00,SystemResetWarning,0833.2,5.00,000.00,023.1,022.5,000.0,031.2,024.5,7.4,0000.0,0001.39,0006.81,0001.08
2023-12-28 20:57:00,SystemResetWarning,0833.2,5.00,000.00,023.1,022.6,000.0,031.2,024.5,7.4,0000.0,0001.42,0006.87,0001.09
2023-12-28 20:58:00,SystemResetWarning,0833.2,5.00,000.00,023.1,022.6,000.0,031.2,024.6,7.4,0000.0,0001.43,0007.37,0001.10
2023-12-28 20:59:00,SystemResetWarning,0833.2,5.00,000.00,023.1,022.6,000.0,031.2,024.6,7.5,0000.0,0001.43,0008.14,0001.10
